DW6368 Weather Reports


Display with metric or nautical units.
time (UTC)temp
F
wind
direction
speed
MPH
gust
MPH
rain 1hr
in
rain 24hr
in
rain mn
in
humidity
%
barometer
mb
20260904123303 62 37 0.0 1.0 0.00 0.00 0.00 97 1011.4
20260904122306 62 34 0.0 1.0 0.00 0.00 0.00 97 1011.3
20260904121303 62 9 0.0 1.0 0.00 0.00 0.00 97 1011.1
20260904120303 62 51 0.0 1.0 0.00 0.00 0.00 97 1011.2
20260904115324 62 47 0.0 1.0 0.00 0.00 0.00 97 1011.2
20260904114303 62 23 0.0 1.0 0.00 0.00 0.00 97 1011.3
20260904113302 62 55 0.0 1.0 0.00 0.00 0.00 97 1011.2
20260904112323 62 39 0.0 1.0 0.00 0.00 0.00 97 1011.2
20260904111303 62 39 0.0 1.0 0.00 0.00 0.00 97 1011.2
20260904110304 62 51 0.0 1.0 0.00 0.00 0.00 97 1011.2
20260904105305 62 47 0.0 1.0 0.00 0.00 0.00 97 1011.3
20260904104302 62 20 0.0 1.0 0.00 0.00 0.00 96 1011.2
20260904103324 62 51 0.0 1.0 0.00 0.00 0.00 96 1011.1
20260904102306 63 34 0.0 1.0 0.00 0.00 0.00 96 1011.1
20260904101303 63 51 0.0 1.0 0.00 0.00 0.00 96 1011.0
20260904100324 63 35 0.0 1.0 0.00 0.00 0.00 97 1011.0
20260904095324 63 40 0.0 1.0 0.00 0.00 0.00 97 1011.1
20260904094303 63 51 0.0 1.0 0.00 0.00 0.00 96 1011.2
20260904093303 63 41 0.0 1.0 0.00 0.00 0.00 96 1011.2
20260904092306 63 9 0.0 1.0 0.00 0.00 0.00 96 1011.1
20260904091303 63 30 0.0 1.0 0.00 0.00 0.00 96 1011.1
20260904090302 63 51 0.0 1.0 0.00 0.00 0.00 95 1011.0
20260904085306 63 68 0.0 1.0 0.00 0.00 0.00 95 1011.0
20260904084303 63 25 0.0 1.0 0.00 0.00 0.00 95 1011.1
20260904083303 63 308 0.0 1.0 0.00 0.00 0.00 95 1011.1
20260904082305 63 51 0.0 1.0 0.00 0.00 0.00 95 1011.2
20260904081303 63 93 0.0 1.0 0.00 0.00 0.00 95 1011.3
20260904080324 63 51 0.0 1.0 0.00 0.00 0.00 94 1011.3
20260904075306 63 51 0.0 1.0 0.00 0.00 0.00 94 1011.3
20260904074324 64 9 0.0 1.0 0.00 0.00 0.00 94 1011.1
20260904073324 64 34 0.0 1.0 0.00 0.00 0.00 93 1011.2
20260904072324 64 51 0.0 1.0 0.00 0.00 0.00 93 1011.3
20260904071303 64 51 0.0 0.0 0.00 0.00 0.00 93 1011.1
20260904070304 64 265 0.0 1.0 0.00 0.00 0.00 93 1011.1
20260904065306 65 9 0.0 1.0 0.00 0.00 0.00 92 1011.1
20260904064303 65 51 0.0 1.0 0.00 0.00 0.00 92 1011.2
20260904063324 65 9 0.0 1.0 0.00 0.00 0.00 91 1011.3
20260904062306 65 265 0.0 1.0 0.00 0.00 0.00 91 1011.3
20260904061302 66 265 0.0 1.0 0.00 0.00 0.00 90 1011.2
20260904060303 66 34 0.0 1.0 0.00 0.00 0.00 90 1011.2
20260904055306 66 14 0.0 1.0 0.00 0.00 0.00 90 1011.1
20260904054323 67 46 0.0 1.0 0.00 0.00 0.00 89 1011.0
20260904053303 67 68 0.0 1.0 0.00 0.00 0.00 89 1011.1
20260904052306 67 51 0.0 1.0 0.00 0.00 0.00 89 1011.1
20260904051302 67 34 0.0 1.0 0.00 0.00 0.00 89 1011.2
20260904050303 68 9 0.0 1.0 0.00 0.00 0.00 88 1011.2
20260904045306 68 29 0.0 1.0 0.00 0.00 0.00 88 1011.2
20260904044303 68 29 0.0 2.0 0.00 0.00 0.00 87 1011.2
20260904043303 69 21 0.0 1.0 0.00 0.00 0.00 87 1011.1
20260904042306 69 55 0.0 1.0 0.00 0.00 0.00 86 1011.0
20260904041303 69 6 0.0 2.0 0.00 0.00 0.00 86 1011.0
20260904040303 70 302 0.0 3.0 0.00 0.00 0.00 85 1011.0
20260904035306 70 290 1.0 2.0 0.00 0.00 0.00 83 1010.8
20260904034303 70 289 1.0 6.0 0.00 0.00 0.00 83 1010.7
20260904033303 70 303 2.0 5.0 0.00 0.00 0.00 81 1010.6
20260904032305 70 316 1.0 3.0 0.00 0.00 0.00 79 1010.4
20260904031302 70 321 0.0 2.0 0.00 0.00 0.00 78 1010.4
20260904030303 70 316 0.0 1.0 0.00 0.00 0.00 80 1010.4
20260904025306 71 265 0.0 2.0 0.00 0.00 0.00 79 1010.3
20260904024324 71 228 0.0 4.0 0.00 0.00 0.00 79 1010.2
20260904023302 72 257 2.0 4.0 0.00 0.00 0.00 78 1010.2
20260904022323 73 219 1.0 4.0 0.00 0.00 0.00 77 1010.3
20260904021303 74 227 0.0 4.0 0.00 0.00 0.00 76 1010.2
20260904020302 74 210 1.0 5.0 0.00 0.00 0.00 74 1010.3
20260904015306 75 221 2.0 5.0 0.00 0.00 0.00 73 1010.3
20260904014302 76 230 2.0 6.0 0.00 0.00 0.00 73 1010.3
20260904013324 76 226 1.0 6.0 0.00 0.00 0.00 72 1010.2
20260904012306 76 208 2.0 5.0 0.00 0.00 0.00 72 1010.2
20260904011303 77 218 2.0 7.0 0.00 0.00 0.00 71 1010.3
20260904010303 77 239 1.0 6.0 0.00 0.00 0.00 72 1010.2
20260904005306 77 215 2.0 5.0 0.00 0.00 0.00 71 1010.3
20260904004302 77 210 2.0 7.0 0.00 0.00 0.00 72 1010.2
20260904003303 77 191 1.0 6.0 0.00 0.00 0.00 72 1010.3
20260904002306 78 211 2.0 9.0 0.00 0.00 0.00 70 1010.3
20260904001303 79 223 2.0 9.0 0.00 0.00 0.00 71 1010.4
20260904000325 79 235 3.0 7.0 0.00 0.00 0.00 70 1010.5
20260903235305 79 228 2.0 9.0 0.00 0.00 0.00 70 1010.5
20260903234303 80 250 4.0 11.0 0.00 0.00 0.00 69 1010.6
20260903233303 80 219 2.0 11.0 0.00 0.00 0.00 69 1010.8
20260903232305 81 240 3.0 9.0 0.00 0.00 0.00 69 1010.8
20260903231303 81 246 3.0 7.0 0.00 0.00 0.00 69 1010.9
20260903230303 81 213 2.0 9.0 0.00 0.00 0.00 70 1010.9
20260903225324 81 235 4.0 9.0 0.00 0.00 0.00 68 1011.0
20260903224324 81 234 4.0 9.0 0.00 0.00 0.00 68 1011.2
20260903223345 81 262 3.0 10.0 0.00 0.00 0.00 70 1011.2
20260903222305 81 241 2.0 10.0 0.00 0.00 0.00 70 1011.3
20260903221303 80 247 3.0 9.0 0.00 0.00 0.00 70 1011.3
20260903220303 80 242 3.0 10.0 0.00 0.00 0.00 68 1011.4
20260903214324 81 240 3.0 10.0 0.00 0.00 0.00 69 1011.7
20260903213303 81 235 4.0 11.0 0.00 0.00 0.00 70 1011.6
20260903212306 81 218 2.0 8.0 0.00 0.00 0.00 70 1011.5
20260903211303 81 230 3.0 7.0 0.00 0.00 0.00 69 1011.6
20260903210303 81 213 2.0 7.0 0.00 0.00 0.00 71 1011.6
20260903205306 81 212 2.0 7.0 0.00 0.00 0.00 70 1011.7
20260903204303 81 189 2.0 6.0 0.00 0.00 0.00 71 1011.8
20260903203345 81 229 4.0 9.0 0.00 0.00 0.00 69 1012.0
20260903202306 81 206 2.0 7.0 0.00 0.00 0.00 71 1012.1
20260903201303 81 240 4.0 10.0 0.00 0.00 0.00 70 1012.2
20260903200303 81 231 2.0 10.0 0.00 0.00 0.00 70 1012.2
20260903195306 80 200 2.0 7.0 0.00 0.00 0.00 70 1012.3
20260903194303 80 240 2.0 7.0 0.00 0.00 0.00 70 1012.4
20260903193302 81 182 2.0 9.0 0.00 0.00 0.00 69 1012.5
20260903192306 80 208 1.0 6.0 0.00 0.00 0.00 71 1012.6
20260903191303 80 233 2.0 7.0 0.00 0.00 0.00 69 1012.7
20260903190303 79 188 2.0 7.0 0.00 0.00 0.00 71 1012.8
20260903185306 79 198 2.0 9.0 0.00 0.00 0.00 72 1013.1
20260903184303 78 223 3.0 7.0 0.00 0.00 0.00 71 1013.1
20260903183303 78 262 3.0 6.0 0.00 0.00 0.00 70 1013.2
20260903182324 79 231 3.0 5.0 0.00 0.00 0.00 69 1013.4
20260903181302 79 275 2.0 5.0 0.00 0.00 0.00 69 1013.3
20260903180303 78 215 2.0 9.0 0.00 0.00 0.00 71 1013.4
20260903175305 77 212 2.0 7.0 0.00 0.00 0.00 73 1013.4
20260903174303 75 232 2.0 6.0 0.00 0.00 0.00 74 1013.5
20260903173303 76 216 1.0 5.0 0.00 0.00 0.00 75 1013.4
20260903172306 76 233 2.0 7.0 0.00 0.00 0.00 73 1013.4
20260903171303 77 166 2.0 5.0 0.00 0.00 0.00 74 1013.4
20260903170303 77 214 2.0 3.0 0.00 0.00 0.00 74 1013.4
20260903165345 75 191 1.0 3.0 0.00 0.00 0.00 75 1013.4
20260903164303 75 222 1.0 4.0 0.00 0.00 0.00 76 1013.3
20260903163324 74 193 1.0 4.0 0.00 0.00 0.00 76 1013.4
20260903162306 74 226 2.0 6.0 0.00 0.00 0.00 76 1013.3
20260903161303 73 225 1.0 3.0 0.00 0.00 0.00 78 1013.4
20260903160303 72 219 1.0 2.0 0.00 0.00 0.00 82 1013.4
20260903155306 71 53 1.0 3.0 0.00 0.00 0.00 81 1013.3
20260903154302 70 77 1.0 5.0 0.00 0.00 0.00 83 1013.4
20260903153303 70 125 1.0 2.0 0.00 0.00 0.00 83 1013.4
20260903152306 69 110 1.0 2.0 0.00 0.00 0.00 84 1013.4
20260903151303 68 155 1.0 2.0 0.00 0.00 0.00 85 1013.4
20260903150303 68 98 1.0 3.0 0.00 0.00 0.00 85 1013.3
20260903145306 67 118 1.0 3.0 0.00 0.00 0.00 85 1013.4
20260903144303 66 161 1.0 2.0 0.00 0.00 0.00 85 1013.3
20260903143303 66 108 1.0 3.0 0.00 0.00 0.00 84 1013.2
20260903142306 65 119 1.0 2.0 0.00 0.00 0.00 86 1013.1
20260903141303 65 156 1.0 4.0 0.00 0.00 0.00 87 1013.0
20260903140302 64 129 1.0 2.0 0.00 0.00 0.00 90 1012.8
20260903135324 64 45 0.0 1.0 0.00 0.00 0.00 91 1012.7
20260903134323 63 343 0.0 1.0 0.00 0.00 0.00 90 1012.8
20260903133303 63 352 0.0 3.0 0.00 0.00 0.00 90 1012.6
20260903132324 63 50 0.0 1.0 0.00 0.00 0.00 92 1012.6
20260903131303 63 338 0.0 1.0 0.00 0.00 0.00 91 1012.6
20260903130303 64 51 0.0 1.0 0.00 0.00 0.00 91 1012.6
20260903125305 64 308 0.0 1.0 0.00 0.00 0.00 90 1012.6
20260903124324 64 36 0.0 2.0 0.00 0.00 0.00 90 1012.6